Location: *
(49.9853°N, 3.5569°E)
Time: 11:37:05
(UTC+00:00)

SJ-11-01 - Pass Details

Date: 22 September 2019
Orbit: 684 x 702 km, 98.0° (Epoch: 18 October)

Event Time Altitude Azimuth Distance (km) Brightness Sun altitude
Exits shadow 18:58:40 - 160° (SSE) 2,892 7.1 -12.6°
Reaches altitude 10° 19:00:28 10° 159° (SSE) 2,163 6.5 -12.8°
Maximum altitude 19:05:12 78° 73° (ENE) 723 4.2 -13.6°
Drops below altitude 10° 19:09:58 10° 348° (NNW) 2,173 7.2 -14.3°
Sets 19:12:13 0° 348° (NNW) 3,093 8.1 -14.7°
